Wind_Speed
7 8 9 9 9 9 9 10 11 11 12 13 14 15 16 18 19 20 20 21 22 22 22 22 23 23 23 23 23 23 22 21 20 18 18 17 15 14 12 11 9 8 7 6
7 7 8 9 9 10 10 10 11 11 12 13 14 15 16 17 18 19 20 20 21 22 22 23 23 23 23 23 23 22 22 22 21 20 19 18 18 16 14 13 12 10 9 7
6 7 8 9 10 10 10 10 11 11 12 13 13 14 15 16 17 19 20 20 20 21 21 22 23 23 23 23 23 23 22 22 22 21 21 20 19 18 17 16 14 12 11 10
6 6 7 8 9 9 10 10 11 11 11 12 13 14 15 16 17 18 19 19 20 20 21 21 22 23 23 23 23 23 23 23 22 22 21 21 21 19 18 17 16 14 13 11
4 5 6 7 7 7 8 9 10 10 11 11 12 13 14 15 16 17 19 19 19 20 20 21 22 22 23 23 23 23 23 23 23 22 22 22 22 21 19 18 17 17 15 14
4 4 5 5 5 6 7 7 8 9 10 11 11 12 13 14 15 16 17 18 18 19 19 20 21 22 22 23 23 23 23 23 23 23 23 23 23 22 21 20 19 18 17 16
5 5 5 5 5 6 6 7 7 8 9 10 11 11 12 13 14 15 16 17 17 18 19 19 20 21 21 22 23 23 23 24 23 23 23 23 23 23 22 21 20 19 18 18
8 7 6 7 7 7 7 7 7 8 9 9 10 11 11 12 13 14 15 15 16 17 17 18 19 19 20 21 22 22 22 23 23 23 23 23 22 22 22 22 21 20 19 18
9 9 8 8 8 8 8 8 8 9 9 10 10 10 11 11 12 12 13 14 14 15 16 17 17 18 19 20 20 21 21 22 22 22 22 22 22 22 22 21 21 20 19 19
12 12 11 11 10 10 10 10 9 9 9 10 10 10 11 11 11 11 12 12 13 14 14 15 16 17 17 18 19 19 20 20 20 21 21 21 22 21 21 21 21 21 19 19
15 15 14 14 13 12 12 12 11 11 10 10 10 10 10 11 11 11 11 11 12 12 13 13 14 15 16 16 17 17 18 18 19 19 20 20 21 21 21 21 21 21 20 20
19 18 18 17 16 16 15 14 14 13 12 12 11 11 11 11 11 11 11 11 11 11 12 12 12 13 14 14 15 15 16 17 17 18 18 18 19 20 20 20 20 20 20 20
23 22 21 20 20 19 18 17 17 16 15 14 13 13 12 12 12 11 11 11 11 11 11 11 11 12 12 13 13 14 14 15 15 16 16 16 17 18 18 19 19 19 19 19
26 26 25 24 23 22 22 21 20 19 18 17 16 15 15 14 13 13 12 12 12 11 11 11 11 11 11 11 12 12 13 13 14 14 15 15 15 15 16 16 17 17 17 18
30 29 28 27 27 26 25 24 23 22 21 20 19 18 17 16 16 15 14 14 13 13 12 12 11 11 11 11 11 11 11 12 12 12 13 13 14 14 14 14 15 15 16 16
34 33 32 31 30 30 29 28 27 26 25 23 22 21 20 19 18 17 17 16 15 14 14 13 13 12 12 11 11 11 11 11 11 11 11 12 12 12 13 13 13 13 13 14
39 37 37 36 35 34 33 31 30 29 28 27 26 25 23 22 21 20 19 18 18 17 16 15 14 14 13 12 12 11 11 11 11 11 11 11 11 11 11 11 11 11 11 12
43 42 41 40 39 38 37 36 34 33 32 31 30 28 26 25 24 23 22 21 20 19 19 18 17 16 15 14 14 13 12 12 12 12 11 11 11 11 11 11 10 10 10 10
46 46 45 44 44 43 41 40 39 38 36 35 34 32 31 29 28 27 26 24 23 22 21 20 19 18 17 17 16 15 15 14 13 13 13 12 12 12 11 11 11 10 10 10
50 50 50 49 48 47 46 44 43 42 41 40 38 37 35 33 32 31 29 27 26 26 25 23 22 21 20 20 19 18 17 17 16 15 15 14 14 14 13 13 12 12 11 11
53 53 53 53 52 51 50 49 48 46 45 44 43 41 39 38 37 35 33 31 30 29 28 27 26 25 24 23 22 21 20 20 19 18 17 17 16 16 15 15 15 14 13 13
56 56 56 56 56 55 55 54 53 51 50 49 47 46 44 43 41 40 38 36 35 34 32 31 30 29 28 27 26 25 24 23 23 22 21 20 20 19 18 18 17 17 17 16
59 59 59 59 59 58 58 58 57 56 55 53 52 50 49 48 47 45 43 41 40 38 37 35 34 33 32 31 29 29 28 27 26 25 25 24 23 23 22 21 21 20 20 20
62 62 62 61 61 61 61 61 60 59 58 57 56 55 54 53 52 50 48 47 45 43 42 40 39 38 37 35 34 33 32 31 30 29 28 28 27 26 25 25 24 24 23 23
63 62 62 62 62 62 63 64 64 63 62 61 60 60 59 58 57 55 54 52 50 48 47 46 44 43 42 40 39 38 37 36 35 34 33 32 31 30 29 29 28 27 27 26
64 64 64 63 64 63 63 65 66 67 66 65 64 63 63 62 61 60 58 57 55 54 53 51 50 49 47 46 44 43 42 41 40 39 37 36 35 35 34 33 32 31 31 30
64 64 64 63 63 63 64 64 66 67 68 68 68 67 67 66 65 64 63 62 61 59 58 57 55 54 53 51 50 48 47 46 45 43 42 41 40 39 38 38 37 36 35 35
Wind_Direction
44 39 38 37 33 29 26 23 22 20 19 20 21 20 19 20 22 24 26 27 28 28 28 28 28 28 28 28 28 28 29 29 27 26 26 25 24 20 16 11 6 359 350 335
48 45 43 41 37 34 32 29 26 24 24 23 23 23 22 23 24 26 27 26 26 27 27 27 27 27 28 28 28 28 28 28 27 27 26 26 24 23 20 18 15 10 7 360
50 51 48 46 41 38 36 33 29 28 28 27 26 25 24 24 24 23 24 24 24 24 24 25 25 26 27 27 27 27 27 28 28 29 29 28 27 26 26 25 23 21 18 14
42 46 48 43 42 39 37 34 32 30 27 24 23 22 21 21 21 21 22 22 22 23 23 24 24 25 26 27 27 27 28 28 28 27 28 27 26 27 28 29 29 27 24 23
24 32 40 36 32 31 30 29 27 26 24 22 21 22 22 21 21 21 21 21 22 23 24 24 24 25 25 25 26 27 27 28 28 28 28 28 28 29 31 32 32 32 32 32
341 356 9 15 12 13 17 20 18 19 19 19 19 20 19 19 19 18 18 20 21 23 23 24 24 24 24 25 26 27 27 28 29 29 30 30 31 32 33 34 34 35 35 35
302 314 331 339 341 346 352 357 358 2 5 7 9 11 11 13 14 15 16 17 18 19 21 22 23 24 25 25 27 27 28 29 29 30 31 31 32 33 34 34 35 35 36 36
287 294 305 310 316 323 328 331 335 342 348 352 355 358 0 3 6 8 10 13 15 17 18 20 21 23 24 24 25 26 27 28 29 29 30 31 32 32 33 34 34 34 35 35
281 286 290 294 300 307 312 317 321 323 327 333 339 343 347 351 355 358 2 5 8 11 14 16 17 19 21 22 24 25 26 27 28 29 29 30 30 31 31 32 33 34 35 35
274 277 280 284 288 293 299 305 309 313 317 320 324 328 333 337 341 346 351 355 358 2 6 10 13 15 17 19 21 23 24 25 26 27 28 29 30 30 31 32 33 33 34 34
268 271 274 278 281 285 288 293 297 301 305 310 315 319 324 329 333 336 339 343 347 351 355 0 4 9 13 15 16 19 21 22 23 24 26 27 28 29 31 32 33 33 34 34
266 267 270 272 275 278 281 285 288 291 295 299 303 306 311 316 322 327 330 334 337 341 345 349 354 358 2 7 11 14 16 19 21 22 23 25 26 27 28 29 31 32 33 34
264 266 268 269 270 273 276 278 280 283 286 289 292 295 298 302 307 312 317 322 327 331 336 341 345 349 352 357 1 6 9 12 15 18 19 20 22 24 26 27 29 30 31 33
264 265 266 267 268 270 272 273 275 277 279 281 283 286 289 291 294 298 303 308 312 317 321 326 332 338 342 345 350 354 359 3 7 10 13 15 17 18 20 23 26 28 29 31
261 262 263 264 265 266 268 269 270 271 273 275 277 279 282 283 286 288 291 295 299 303 307 311 315 322 329 334 337 342 346 350 355 360 4 7 10 13 15 18 21 24 26 28
262 263 263 264 264 265 265 266 267 268 269 270 272 273 276 277 279 280 283 285 289 292 296 299 303 306 311 318 324 328 333 338 342 347 352 356 360 4 8 11 14 17 20 23
262 263 263 263 264 264 265 265 265 265 266 266 267 269 270 272 273 274 276 278 280 283 286 289 292 295 298 302 307 312 317 322 328 333 338 343 347 350 354 358 3 6 10 13
262 262 262 262 262 263 263 264 264 263 263 263 264 265 266 267 268 269 270 272 274 276 278 280 283 286 289 292 294 297 301 305 310 315 320 325 331 337 341 344 346 351 355 358
261 261 261 262 262 262 262 262 262 262 262 261 261 261 262 263 263 264 265 267 268 270 272 274 276 278 281 284 286 288 290 293 297 300 303 308 313 317 322 326 330 333 337 340
261 261 261 261 261 261 261 260 260 260 260 260 259 259 259 259 260 260 261 262 263 265 267 269 271 273 274 276 278 281 283 285 287 290 293 295 298 302 306 309 312 315 318 321
260 260 260 260 260 260 259 259 259 258 258 258 258 258 257 257 257 258 258 259 259 260 262 264 266 268 270 272 273 275 276 278 281 283 285 287 289 291 294 297 300 302 304 305
260 259 258 258 258 258 258 258 257 257 256 256 256 256 256 256 256 256 256 256 256 258 259 260 262 263 265 267 269 271 272 274 275 277 279 280 282 284 286 287 289 291 293 295
261 259 258 257 256 256 256 256 256 255 255 255 254 254 254 255 255 255 254 254 255 256 256 257 259 261 262 264 266 267 269 270 271 272 274 276 277 279 281 282 283 285 286 288
263 261 259 257 256 255 254 254 254 254 254 253 253 253 253 253 253 254 254 253 254 255 256 256 257 258 260 261 263 264 266 267 268 270 271 272 274 275 277 278 280 281 282 283
265 263 261 259 257 255 253 252 252 252 252 252 251 251 251 251 251 252 252 253 253 253 254 255 256 257 258 259 261 262 263 264 266 267 269 270 271 272 273 275 276 277 279 280
266 265 263 261 258 256 254 252 251 251 250 250 250 250 250 250 251 251 251 252 252 252 253 254 254 256 257 258 259 260 261 262 264 265 266 267 269 270 271 272 273 274 275 276
267 266 265 263 261 259 256 254 252 250 250 249 249 249 249 249 249 250 250 251 251 251 252 253 253 254 255 256 258 259 260 261 262 263 264 266 267 268 269 270 271 272 273 274
Height
5887 5885 5884 5882 5880 5878 5876 5874 5873 5871 5868 5866 5863 5860 5857 5853 5849 5845 5841 5837 5833 5829 5824 5820 5816 5811 5807 5803 5799 5795 5791 5787 5783 5780 5777 5774 5771 5769 5766 5764 5763 5761 5760 5760
5888 5886 5885 5883 5881 5880 5878 5876 5874 5872 5870 5867 5864 5862 5859 5855 5852 5848 5844 5840 5836 5832 5828 5824 5819 5815 5811 5806 5802 5798 5794 5790 5786 5783 5780 5776 5773 5770 5768 5765 5763 5762 5760 5759
5889 5887 5886 5885 5883 5881 5879 5877 5876 5874 5872 5869 5866 5864 5861 5858 5854 5851 5847 5843 5839 5835 5831 5827 5823 5818 5814 5810 5806 5802 5797 5793 5790 5786 5783 5779 5776 5773 5770 5767 5765 5762 5761 5759
5889 5889 5887 5888 5884 5883 5881 5879 5877 5875 5873 5871 5868 5866 5863 5860 5857 5853 5849 5846 5842 5838 5834 5830 5826 5822 5817 5813 5809 5805 5801 5797 5793 5789 5786 5782 5779 5775 5772 5769 5766 5764 5762 5760
5890 5889 5888 5887 5885 5883 5882 5881 5879 5876 5874 5872 5870 5867 5865 5862 5858 5855 5852 5848 5844 5841 5837 5833 5829 5825 5821 5817 5813 5809 5804 5800 5796 5792 5789 5785 5781 5778 5774 5771 5769 5766 5764 5762
5890 5889 5889 5889 5886 5884 5884 5882 5880 5877 5875 5873 5871 5869 5867 5863 5860 5857 5854 5850 5847 5843 5840 5836 5832 5828 5824 5820 5816 5812 5808 5804 5800 5796 5792 5789 5785 5781 5777 5774 5771 5769 5766 5764
5889 5889 5888 5888 5886 5885 5885 5884 5880 5878 5876 5874 5872 5870 5868 5865 5862 5859 5856 5853 5849 5846 5842 5839 5835 5831 5828 5824 5820 5816 5812 5808 5804 5800 5796 5792 5789 5785 5781 5778 5775 5772 5769 5767
5888 5888 5889 5886 5885 5885 5884 5881 5880 5878 5876 5874 5872 5870 5868 5865 5863 5860 5857 5854 5851 5848 5845 5841 5838 5834 5831 5827 5823 5819 5815 5811 5807 5804 5800 5796 5793 5789 5786 5782 5779 5776 5773 5770
5887 5888 5886 5885 5884 5883 5882 5880 5879 5877 5876 5874 5872 5870 5868 5866 5863 5861 5858 5855 5853 5850 5847 5844 5840 5837 5833 5830 5826 5822 5819 5815 5811 5808 5804 5800 5796 5793 5790 5786 5783 5780 5777 5774
5884 5884 5883 5882 5882 5881 5880 5879 5877 5876 5874 5873 5871 5869 5867 5865 5863 5861 5858 5856 5853 5851 5848 5845 5842 5839 5836 5832 5829 5825 5822 5818 5815 5811 5808 5804 5800 5797 5793 5790 5787 5784 5780 5777
5880 5880 5880 5879 5879 5878 5877 5876 5875 5874 5873 5871 5870 5868 5866 5864 5862 5860 5858 5856 5854 5851 5849 5846 5843 5840 5837 5834 5831 5828 5825 5821 5818 5814 5811 5808 5804 5801 5797 5794 5791 5788 5784 5781
5876 5876 5876 5876 5875 5875 5874 5873 5872 5871 5870 5869 5868 5866 5865 5863 5861 5859 5857 5855 5853 5851 5848 5846 5844 5841 5838 5835 5833 5830 5827 5824 5820 5817 5814 5811 5807 5804 5801 5798 5794 5791 5788 5785
5870 5870 5870 5871 5871 5870 5870 5869 5869 5868 5867 5866 5865 5863 5862 5861 5859 5858 5856 5854 5852 5850 5848 5846 5843 5841 5839 5836 5833 5831 5828 5825 5822 5819 5816 5813 5810 5807 5804 5801 5798 5795 5791 5788
5863 5864 5864 5865 5865 5865 5864 5864 5864 5863 5862 5862 5861 5860 5859 5858 5856 5855 5854 5852 5850 5848 5847 5845 5842 5840 5838 5836 5834 5831 5829 5826 5823 5821 5818 5815 5812 5809 5807 5804 5801 5798 5795 5792
5855 5856 5857 5857 5858 5858 5858 5858 5858 5858 5857 5857 5856 5855 5854 5854 5853 5851 5850 5849 5847 5846 5844 5843 5841 5839 5837 5835 5833 5831 5828 5826 5824 5821 5819 5816 5814 5811 5808 5806 5803 5801 5798 5795
5847 5848 5849 5849 5850 5850 5850 5851 5851 5851 5851 5850 5850 5850 5849 5849 5848 5847 5846 5845 5844 5843 5841 5840 5838 5837 5835 5833 5831 5829 5827 5825 5823 5821 5819 5817 5814 5812 5810 5807 5805 5803 5800 5798
5837 5839 5840 5840 5841 5841 5842 5842 5843 5843 5843 5843 5843 5843 5843 5842 5842 5841 5841 5840 5839 5838 5837 5836 5835 5833 5832 5830 5829 5827 5826 5824 5822 5820 5818 5816 5814 5812 5810 5808 5806 5804 5802 5799
5826 5827 5828 5829 5830 5831 5832 5833 5833 5834 5834 5834 5834 5835 5835 5835 5835 5835 5834 5834 5833 5833 5832 5831 5830 5829 5828 5827 5825 5824 5823 5821 5820 5818 5817 5815 5813 5811 5809 5807 5806 5804 5802 5800
5813 5814 5816 5817 5818 5819 5820 5822 5822 5823 5824 5824 5825 5825 5826 5826 5826 5826 5826 5827 5826 5826 5825 5825 5824 5824 5823 5822 5821 5820 5819 5818 5817 5815 5814 5813 5811 5810 5808 5806 5805 5803 5801 5800
5799 5800 5801 5803 5804 5806 5807 5809 5810 5811 5812 5813 5814 5815 5816 5816 5816 5817 5818 5818 5818 5818 5818 5818 5817 5817 5817 5816 5815 5815 5814 5813 5812 5811 5810 5809 5808 5807 5805 5804 5802 5801 5800 5798
5783 5784 5785 5787 5789 5791 5792 5794 5796 5797 5799 5800 5802 5803 5804 5805 5806 5807 5808 5809 5809 5809 5809 5809 5809 5809 5809 5809 5809 5808 5808 5807 5807 5806 5805 5804 5803 5802 5801 5800 5799 5798 5797 5795
5764 5766 5768 5770 5771 5773 5775 5777 5779 5782 5784 5786 5787 5789 5790 5792 5793 5795 5796 5797 5798 5798 5799 5800 5800 5800 5800 5801 5801 5801 5801 5800 5800 5800 5799 5799 5798 5797 5796 5795 5794 5793 5792 5791
5743 5746 5748 5750 5752 5755 5757 5759 5761 5764 5767 5769 5772 5774 5776 5777 5779 5781 5783 5785 5785 5787 5788 5789 5789 5790 5790 5791 5792 5792 5792 5792 5792 5792 5792 5791 5791 5791 5790 5789 5789 5788 5787 5786
5721 5724 5726 5729 5731 5734 5737 5739 5742 5745 5748 5751 5754 5756 5759 5761 5764 5766 5768 5770 5772 5774 5775 5776 5777 5778 5779 5780 5781 5782 5782 5782 5783 5783 5783 5783 5783 5783 5782 5782 5782 5781 5780 5780
5699 5701 5703 5706 5709 5712 5715 5718 5721 5724 5728 5731 5734 5737 5740 5743 5746 5749 5751 5754 5757 5759 5761 5762 5763 5765 5766 5768 5769 5770 5771 5771 5772 5772 5773 5773 5773 5773 5773 5773 5773 5773 5772 5772
5677 5679 5681 5683 5686 5689 5692 5695 5698 5702 5706 5710 5713 5716 5720 5723 5727 5731 5734 5737 5740 5742 5744 5746 5748 5750 5752 5754 5755 5756 5757 5759 5760 5760 5761 5762 5762 5762 5763 5763 5763 5763 5763 5762
5655 5656 5658 5660 5662 5665 5668 5671 5675 5678 5682 5686 5690 5694 5698 5702 5706 5710 5713 5717 5720 5723 5726 5728 5731 5733 5736 5738 5740 5741 5743 5744 5746 5747 5748 5749 5749 5750 5751 5751 5751 5751 5751 5751